Location: ????????
(48.4751°N, 37.6926°E)
Time: 12:52:55
(UTC+00:00)

RESURS DK-1 - Pass Details

Date: 20 January 2021
Orbit: 557 x 560 km, 69.9° (Epoch: 26 February)

Event Time Altitude Azimuth Distance (km) Brightness Sun altitude
Rises 15:25:17 0° 232° (SW) 2,735 7.3 -12.4°
Reaches altitude 10° 15:27:38 10° 241° (WSW) 1,843 6.4 -12.8°
Maximum altitude 15:31:25 35° 308° (NW) 919 3.8 -13.4°
Drops below altitude 10° 15:35:14 10° 15° (NNE) 1,854 4.7 -14.0°
Enters shadow 15:35:54 - 19° (NNE) 2,103 5.0 -14.1°
